User: anonymous   Login
Location: Kernascl�den
(48.0062°N, 3.3198°W)
Time: 09:43:12
(UTC+00:00)
Language:

CZ-4 R/B - Orbit

View from above orbital plane
View from above orbital plane
View from above satellite
View from above satellite

Ground track
Ground track

The orbit data is extracted from the following two-line orbital elements,

1 28414U 04035B   21100.83479650 -.00000228  00000-0 -15941-4 0  9995
2 28414  97.7458 122.7934 0007660  58.3841 301.8110 14.94329860903346
Epoch (UTC): 10 April 2021 20:02:06
Eccentricity: 0.0007660
inclination: 97.7458°
perigee height: 579 km
apogee height: 590 km
right ascension of ascending node: 122.7934°
argument of perigee: 58.3841°
revolutions per day: 14.94329860
mean anomaly at epoch: 301.8110°
orbit number at epoch: 90334

The dashed part of the orbit path shows where the satellite is in the earth's shadow,  

DLR